Stations météo

Publicité
Hurguada, Egypte (62463): Température de l'air & dewpoint: 17.04.2017 23:00:00 - 23.04.2017 23:00:00 (EET)Hurguada, Egypte (62463): Vitesse du vent: 17.04.2017 23:00:00 - 23.04.2017 23:00:00 (EET)Hurguada, Egypte (62463): Direction du vent: 17.04.2017 23:00:00 - 23.04.2017 23:00:00 (EET)Hurguada, Egypte (62463): reduced air pressure: 17.04.2017 23:00:00 - 23.04.2017 23:00:00 (EET)Hurguada, Egypte (62463): visibility: 17.04.2017 23:00:00 - 23.04.2017 23:00:00 (EET)
Date & Time tt [°C] td [°C] ff [km/h] ff [knt] dd ppp [hPa] vv [km]
23.04.2017 23:00:00 - - - - - - -
23.04.2017 22:00:00 - - - - - - -
23.04.2017 21:00:00 - - - - - - -
23.04.2017 20:00:00 25,2 7,6 45 24 NNW 1011,2 0,9
23.04.2017 19:00:00 - - - - - - -
23.04.2017 18:00:00 - - - - - - -
23.04.2017 17:00:00 27,0 14,0 41 22 N 1009,2 10
23.04.2017 16:00:00 - - - - - - -
23.04.2017 15:00:00 - - - - - - -
23.04.2017 14:00:00 29,6 13,4 45 24 N 1009,6 0,5
23.04.2017 13:00:00 - - - - - - -
23.04.2017 12:00:00 - - - - - - -
23.04.2017 11:00:00 28,8 11,8 44 24 N 1011,2 0,5
23.04.2017 10:00:00 - - - - - - -
23.04.2017 09:00:00 - - - - - - -
23.04.2017 08:00:00 24,0 13,1 45 24 NNW 1010,5 0,5
23.04.2017 07:00:00 - - - - - - -
23.04.2017 06:00:00 - - - - - - -
23.04.2017 05:00:00 24,0 16,2 34 18 N 1007,2 6
23.04.2017 04:00:00 - - - - - - -
23.04.2017 03:00:00 - - - - - - -
23.04.2017 02:00:00 25,4 15,7 2 1 WNW 1005,8 10
23.04.2017 01:00:00 - - - - - - -
23.04.2017 00:00:00 - - - - - - -
22.04.2017 23:00:00 27,3 17,6 5 3 S 1006,4 10
22.04.2017 22:00:00 - - - - - - -
22.04.2017 21:00:00 - - - - - - -
22.04.2017 20:00:00 27,8 17,0 5 3 SSE 1005,6 10
22.04.2017 19:00:00 - - - - - - -
22.04.2017 18:00:00 - - - - - - -
22.04.2017 17:00:00 29,0 20,2 9 5 SE 1004,7 7
22.04.2017 16:00:00 - - - - - - -
22.04.2017 15:00:00 - - - - - - -
22.04.2017 14:00:00 34,6 11,7 13 7 SE 1006,2 7
22.04.2017 13:00:00 - - - - - - -
22.04.2017 12:00:00 - - - - - - -
22.04.2017 11:00:00 34,6 2,2 15 8 N 1008,5 7
22.04.2017 10:00:00 - - - - - - -
22.04.2017 09:00:00 - - - - - - -
22.04.2017 08:00:00 30,8 -3,3 15 8 NNW 1009,0 10
22.04.2017 07:00:00 - - - - - - -
22.04.2017 06:00:00 - - - - - - -
22.04.2017 05:00:00 24,8 -4,6 8 4 NW 1007,7 10
22.04.2017 04:00:00 - - - - - - -
22.04.2017 03:00:00 - - - - - - -
22.04.2017 02:00:00 27,0 -3,8 8 4 NNW 1007,7 10
22.04.2017 01:00:00 - - - - - - -
22.04.2017 00:00:00 - - - - - - -
21.04.2017 23:00:00 27,6 10,0 5 3 N 1009,3 10
21.04.2017 22:00:00 - - - - - - -
21.04.2017 21:00:00 - - - - - - -
21.04.2017 20:00:00 31,6 0,0 4 2 NNW 1009,6 10
21.04.2017 19:00:00 - - - - - - -
21.04.2017 18:00:00 - - - - - - -
21.04.2017 17:00:00 36,8 -1,4 8 4 ENE 1009,5 10
21.04.2017 16:00:00 - - - - - - -
21.04.2017 15:00:00 - - - - - - -
21.04.2017 14:00:00 35,6 -1,3 16 9 ENE 1010,7 10
21.04.2017 13:00:00 - - - - - - -
21.04.2017 12:00:00 - - - - - - -
21.04.2017 11:00:00 - - - - - - -
21.04.2017 10:00:00 - - - - - - -
21.04.2017 09:00:00 - - - - - - -
21.04.2017 08:00:00 30,3 -3,5 18 10 NW 1014,0 10
21.04.2017 07:00:00 - - - - - - -
21.04.2017 06:00:00 - - - - - - -
21.04.2017 05:00:00 - - - - - - -
21.04.2017 04:00:00 - - - - - - -
21.04.2017 03:00:00 - - - - - - -
21.04.2017 02:00:00 25,4 -5,0 16 9 NW 1012,7 10
21.04.2017 01:00:00 - - - - - - -
21.04.2017 00:00:00 - - - - - - -
20.04.2017 23:00:00 - - - - - - -
20.04.2017 22:00:00 - - - - - - -
20.04.2017 21:00:00 - - - - - - -
20.04.2017 20:00:00 26,2 11,2 13 7 N 1013,2 10
20.04.2017 19:00:00 - - - - - - -
20.04.2017 18:00:00 - - - - - - -
20.04.2017 17:00:00 - - - - - - -
20.04.2017 16:00:00 - - - - - - -
20.04.2017 15:00:00 - - - - - - -
20.04.2017 14:00:00 32,4 5,0 22 12 N 1013,5 7
20.04.2017 13:00:00 - - - - - - -
20.04.2017 12:00:00 - - - - - - -
20.04.2017 11:00:00 - - - - - - -
20.04.2017 10:00:00 - - - - - - -
20.04.2017 09:00:00 - - - - - - -
20.04.2017 08:00:00 26,8 5,7 18 10 N 1016,1 10
20.04.2017 07:00:00 - - - - - - -
20.04.2017 06:00:00 - - - - - - -
20.04.2017 05:00:00 - - - - - - -
20.04.2017 04:00:00 - - - - - - -
20.04.2017 03:00:00 - - - - - - -
20.04.2017 02:00:00 23,9 5,7 24 13 NW 1014,4 10
20.04.2017 01:00:00 - - - - - - -
20.04.2017 00:00:00 - - - - - - -
19.04.2017 23:00:00 - - - - - - -
19.04.2017 22:00:00 - - - - - - -
19.04.2017 21:00:00 - - - - - - -
19.04.2017 20:00:00 26,7 7,2 4 2 N 1015,1 10
19.04.2017 19:00:00 - - - - - - -
19.04.2017 18:00:00 - - - - - - -
19.04.2017 17:00:00 - - - - - - -
19.04.2017 16:00:00 - - - - - - -
19.04.2017 15:00:00 - - - - - - -
19.04.2017 14:00:00 33,4 2,3 9 5 NE 1015,5 10
19.04.2017 13:00:00 - - - - - - -
19.04.2017 12:00:00 - - - - - - -
19.04.2017 11:00:00 - - - - - - -
19.04.2017 10:00:00 - - - - - - -
19.04.2017 09:00:00 - - - - - - -
19.04.2017 08:00:00 24,7 5,5 21 11 NNW 1017,6 10
19.04.2017 07:00:00 - - - - - - -
19.04.2017 06:00:00 - - - - - - -
19.04.2017 05:00:00 - - - - - - -
19.04.2017 04:00:00 - - - - - - -
19.04.2017 03:00:00 - - - - - - -
19.04.2017 02:00:00 21,6 -3,0 8 4 N 1014,8 10
19.04.2017 01:00:00 - - - - - - -
19.04.2017 00:00:00 - - - - - - -
18.04.2017 23:00:00 24,6 -3,8 11 6 W 1015,4 10
18.04.2017 22:00:00 - - - - - - -
18.04.2017 21:00:00 - - - - - - -
18.04.2017 20:00:00 27,2 -2,7 8 4 W 1014,7 10
18.04.2017 19:00:00 - - - - - - -
18.04.2017 18:00:00 - - - - - - -
18.04.2017 17:00:00 30,1 0,6 8 4 SSE 1014,2 10
18.04.2017 16:00:00 - - - - - - -
18.04.2017 15:00:00 - - - - - - -
18.04.2017 14:00:00 29,8 11,3 11 6 ESE 1014,9 10
18.04.2017 13:00:00 - - - - - - -
18.04.2017 12:00:00 - - - - - - -
18.04.2017 11:00:00 29,5 8,5 5 3 ENE 1016,2 10
18.04.2017 10:00:00 - - - - - - -
18.04.2017 09:00:00 - - - - - - -
18.04.2017 08:00:00 26,8 1,2 18 10 NW 1015,5 10
18.04.2017 07:00:00 - - - - - - -
18.04.2017 06:00:00 - - - - - - -
18.04.2017 05:00:00 20,2 1,2 15 8 WNW 1014,0 10
18.04.2017 04:00:00 - - - - - - -
18.04.2017 03:00:00 - - - - - - -
18.04.2017 02:00:00 - - - - - - -
18.04.2017 01:00:00 - - - - - - -
18.04.2017 00:00:00 - - - - - - -
17.04.2017 23:00:00 24,0 0,3 18 10 WNW 1013,8 10

tt = Température de l'air
td = dewpoint
ff = Vitesse du vent
dd = Direction du vent
ppp = reduced air pressure
vv = visibility

stations d'obs. à proximité